FW8433 Weather Reports


time (UTC)temp
C
wind
direction
speed
KPH
gust
KPH
rain 1hr
cm
rain 24hr
cm
rain mn
cm
humidity
%
barometer
mb
20260510104609 20 0 0.0 1.6 0.00 0.00 0.00 92 1015.4
20260510104051 20 0 0.0 3.2 0.00 0.00 0.00 92 1015.4
20260510103557 20 0 0.0 4.8 0.00 0.00 0.00 92 1015.3
20260510103051 20 196 0.0 6.4 0.00 0.00 0.00 92 1015.3
20260510102553 20 196 1.6 6.4 0.00 0.00 0.00 92 1015.2
20260510102050 20 196 1.6 6.4 0.00 0.00 0.00 92 1015.1
20260510101555 20 207 3.2 9.7 0.00 0.00 0.00 92 1015.0
20260510101054 20 239 1.6 9.7 0.00 0.00 0.00 92 1014.9
20260510100552 20 201 1.6 6.4 0.00 0.00 0.00 92 1014.8
20260510100058 20 0 0.0 6.4 0.00 0.00 0.00 92 1014.7
20260510095553 20 184 0.0 3.2 0.00 0.00 0.00 92 1014.4
20260510095049 20 0 0.0 6.4 0.00 0.00 0.00 92 1014.3
20260510094551 20 184 1.6 6.4 0.00 0.00 0.00 92 1014.3
20260510094050 20 197 0.0 3.2 0.00 0.00 0.00 92 1014.1
20260510093552 20 0 0.0 1.6 0.00 0.00 0.00 92 1013.9
20260510093052 20 0 0.0 3.2 0.00 0.00 0.00 92 1014.0
20260510092550 20 0 0.0 4.8 0.00 0.00 0.00 92 1013.9
20260510092054 20 0 0.0 4.8 0.00 0.00 0.00 92 1013.6
20260510091555 20 0 0.0 4.8 0.00 0.00 0.00 92 1013.5
20260510091050 20 0 0.0 0.0 0.00 0.00 0.00 92 1013.5
20260510090550 20 0 0.0 0.0 0.00 0.00 0.00 92 1013.5
20260510090053 20 0 0.0 0.0 0.00 0.00 0.00 92 1013.6
20260510085552 20 0 0.0 0.0 0.00 0.00 0.00 92 1013.5
20260510085050 20 0 0.0 0.0 0.00 0.00 0.00 92 1013.5
20260510084552 20 0 0.0 1.6 0.00 0.00 0.00 92 1013.6
20260510084050 20 0 0.0 4.8 0.00 0.00 0.00 92 1013.6
20260510083550 20 0 0.0 4.8 0.00 0.00 0.00 92 1013.5
20260510083054 20 0 0.0 0.0 0.00 0.00 0.00 92 1013.5
20260510082555 20 0 0.0 0.0 0.00 0.00 0.00 92 1013.6
20260510082049 20 0 0.0 0.0 0.00 0.00 0.00 91 1013.4
20260510081611 20 0 0.0 3.2 0.00 0.00 0.00 91 1013.4
20260510081052 20 0 0.0 4.8 0.00 0.00 0.00 91 1013.4
20260510080552 20 0 0.0 6.4 0.00 0.00 0.00 91 1013.3
20260510080057 20 197 1.6 6.4 0.00 0.00 0.00 91 1013.2
20260510075550 20 0 1.6 6.4 0.00 0.00 0.00 91 1013.2
20260510075050 20 206 1.6 4.8 0.00 0.00 0.00 91 1013.3
20260510074557 20 0 0.0 6.4 0.00 0.00 0.00 91 1013.2
20260510074050 20 200 1.6 6.4 0.00 0.00 0.00 91 1013.2
20260510073549 20 197 1.6 6.4 0.00 0.00 0.00 91 1013.2
20260510073052 20 222 0.0 6.4 0.00 0.00 0.00 91 1013.3
20260510072550 20 222 3.2 6.4 0.00 0.00 0.00 91 1013.2
20260510072052 20 213 0.0 4.8 0.00 0.00 0.00 91 1013.2
20260510071553 20 0 1.6 6.4 0.00 0.00 0.00 91 1013.2
20260510071051 20 0 1.6 6.4 0.00 0.00 0.00 91 1013.2
20260510070552 20 207 0.0 6.4 0.00 0.00 0.00 91 1013.3
20260510070056 20 0 1.6 6.4 0.00 0.00 0.00 91 1013.2
20260510065552 20 203 0.0 4.8 0.00 0.00 0.00 91 1013.2
20260510065051 20 0 0.0 4.8 0.00 0.00 0.00 91 1013.2
20260510064551 20 0 1.6 4.8 0.00 0.00 0.00 91 1013.1
20260510064050 20 184 1.6 4.8 0.00 0.00 0.00 91 1013.1
20260510063550 20 0 0.0 6.4 0.00 0.00 0.00 91 1013.0
20260510063054 20 0 1.6 8.0 0.00 0.00 0.00 91 1012.9
20260510062549 20 211 3.2 8.0 0.00 0.00 0.00 91 1012.9
20260510062050 20 212 1.6 6.4 0.00 0.00 0.00 91 1012.9
20260510061552 20 214 1.6 6.4 0.00 0.00 0.00 91 1012.9
20260510061052 20 190 1.6 6.4 0.00 0.00 0.00 91 1013.0
20260510060554 20 190 1.6 3.2 0.00 0.00 0.00 90 1013.0
20260510060101 20 0 0.0 1.6 0.00 0.00 0.00 90 1013.0
20260510055551 20 0 0.0 0.0 0.00 0.00 0.00 90 1013.1
20260510055052 20 0 0.0 0.0 0.00 0.00 0.00 90 1013.2
20260510054559 20 0 0.0 0.0 0.00 0.00 0.00 90 1013.2
20260510054051 20 0 0.0 0.0 0.00 0.00 0.00 90 1013.2
20260510053551 20 0 0.0 1.6 0.00 0.00 0.00 89 1013.2
20260510053057 20 0 0.0 1.6 0.00 0.00 0.00 89 1013.1
20260510052551 20 0 0.0 0.0 0.00 0.00 0.00 89 1013.0
20260510052051 20 0 0.0 0.0 0.00 0.00 0.00 89 1013.1
20260510051649 20 0 0.0 0.0 0.00 0.00 0.00 89 1013.1
20260510051053 20 0 0.0 0.0 0.00 0.00 0.00 89 1013.0
20260510050551 20 0 0.0 0.0 0.00 0.00 0.00 89 1013.0
20260510050059 20 0 0.0 0.0 0.00 0.00 0.00 89 1012.9
20260510045551 20 0 0.0 0.0 0.00 0.00 0.00 89 1013.0
20260510045050 20 0 0.0 0.0 0.00 0.00 0.00 89 1012.9
20260510044556 20 0 0.0 0.0 0.00 0.00 0.00 89 1012.9
20260510044050 21 0 0.0 0.0 0.00 0.00 0.00 89 1013.0
20260510043553 21 0 0.0 0.0 0.00 0.00 0.00 89 1013.0
20260510043142 21 0 0.0 0.0 0.00 0.00 0.00 89 1013.0
20260510042553 21 0 0.0 0.0 0.00 0.00 0.00 89 1013.0
20260510042054 21 0 0.0 0.0 0.00 0.00 0.00 89 1013.1
20260510041556 21 0 0.0 3.2 0.00 0.00 0.00 89 1013.1
20260510041055 21 0 0.0 3.2 0.00 0.00 0.00 89 1013.0
20260510040552 21 0 0.0 4.8 0.00 0.00 0.00 89 1013.2
20260510040100 21 169 0.0 4.8 0.00 0.00 0.00 89 1013.2
20260510035551 21 0 0.0 4.8 0.00 0.00 0.00 89 1013.2
20260510035053 21 190 0.0 4.8 0.00 0.00 0.00 89 1013.2
20260510034555 21 0 1.6 4.8 0.00 0.00 0.00 88 1013.3
20260510034051 21 222 0.0 3.2 0.00 0.00 0.00 88 1013.3
20260510033556 21 0 0.0 3.2 0.00 0.00 0.00 88 1013.3
20260510033057 21 0 0.0 0.0 0.00 0.00 0.00 88 1013.2
20260510032551 21 0 0.0 1.6 0.00 0.00 0.00 88 1013.3
20260510032054 21 0 0.0 1.6 0.00 0.00 0.00 87 1013.2
20260510031625 21 0 0.0 0.0 0.00 0.00 0.00 87 1013.2
20260510031050 21 0 0.0 0.0 0.00 0.00 0.00 87 1013.2
20260510030551 21 0 0.0 0.0 0.00 0.00 0.00 87 1013.1
20260510030053 21 0 0.0 0.0 0.00 0.00 0.00 87 1013.1
20260510025550 21 0 0.0 0.0 0.00 0.00 0.00 87 1013.2
20260510025052 21 0 0.0 0.0 0.00 0.00 0.00 87 1013.2
20260510024604 21 0 0.0 0.0 0.00 0.00 0.00 86 1013.0
20260510024052 21 0 0.0 0.0 0.00 0.00 0.00 86 1013.1
20260510023550 22 0 0.0 0.0 0.00 0.00 0.00 85 1013.1
20260510023102 22 0 0.0 0.0 0.00 0.00 0.00 85 1013.0
20260510022551 22 0 0.0 0.0 0.00 0.00 0.00 84 1013.0
20260510022051 22 0 0.0 0.0 0.00 0.00 0.00 83 1012.9
20260510021559 22 0 0.0 0.0 0.00 0.00 0.00 82 1012.9
20260510021052 22 0 0.0 0.0 0.00 0.00 0.00 82 1012.8
20260510020550 22 0 0.0 0.0 0.00 0.00 0.00 82 1012.7
20260510020051 22 0 0.0 0.0 0.00 0.00 0.00 82 1012.6
20260510015553 22 0 0.0 0.0 0.00 0.00 0.00 81 1012.6
20260510015052 22 0 0.0 0.0 0.00 0.00 0.00 81 1012.7
20260510014555 22 0 0.0 0.0 0.00 0.00 0.00 81 1012.6
20260510014052 23 0 0.0 0.0 0.00 0.00 0.00 81 1012.5
20260510013553 23 0 0.0 0.0 0.00 0.00 0.00 81 1012.4
20260510013056 23 0 0.0 3.2 0.00 0.00 0.00 80 1012.3
20260510012555 23 0 0.0 3.2 0.00 0.00 0.00 80 1012.2
20260510012055 23 0 0.0 4.8 0.00 0.00 0.00 79 1012.1
20260510011618 23 222 0.0 4.8 0.00 0.00 0.00 79 1012.0
20260510011051 23 0 0.0 0.0 0.00 0.00 0.00 78 1011.9
20260510010554 23 0 0.0 0.0 0.00 0.00 0.00 78 1011.9
20260510010106 23 0 0.0 0.0 0.00 0.00 0.00 78 1011.9
20260510005552 23 0 0.0 3.2 0.00 0.00 0.00 78 1011.8
20260510005051 24 0 0.0 4.8 0.00 0.00 0.00 77 1011.6
20260510004553 24 0 0.0 4.8 0.00 0.00 0.00 77 1011.6
20260510004051 24 159 0.0 4.8 0.00 0.00 0.00 76 1011.6
20260510003553 24 0 1.6 4.8 0.00 0.00 0.00 76 1011.5
20260510003051 24 145 0.0 9.7 0.00 0.00 0.00 76 1011.5
20260510002553 24 157 3.2 9.7 0.00 0.00 0.00 75 1011.5
20260510002049 24 0 0.0 8.0 0.00 0.00 0.00 75 1011.4
20260510001554 24 173 1.6 8.0 0.00 0.00 0.00 75 1011.4
20260510001052 24 0 1.6 4.8 0.00 0.00 0.00 74 1011.3
20260510000553 24 187 1.6 6.4 0.00 0.00 0.00 74 1011.2
20260510000052 24 0 0.0 6.4 0.00 0.00 0.00 74 1011.0
20260509235549 24 0 0.0 8.0 0.00 0.00 0.00 73 1011.0
20260509235053 24 0 3.2 8.0 0.00 0.00 0.00 74 1011.0
20260509234549 24 0 1.6 6.4 0.00 0.00 0.00 73 1011.0
20260509234053 24 187 0.0 3.2 0.00 0.00 0.00 72 1011.0
20260509233552 25 0 1.6 8.0 0.00 0.00 0.00 70 1011.0
20260509233057 25 222 1.6 8.0 0.00 0.00 0.00 70 1011.0
20260509232552 25 157 1.6 6.4 0.00 0.00 0.00 70 1010.9
20260509232052 25 0 1.6 9.7 0.00 0.00 0.00 71 1010.9
20260509231559 25 89 3.2 9.7 0.00 0.00 0.00 70 1010.8
20260509231052 25 182 1.6 9.7 0.00 0.00 0.00 70 1010.8
20260509230550 25 155 3.2 9.7 0.00 0.00 0.00 73 1010.7
20260509230054 25 0 1.6 11.3 0.00 0.00 0.00 71 1010.6
20260509225554 25 163 1.6 11.3 0.00 0.00 0.00 70 1010.8
20260509225056 25 123 1.6 6.4 0.00 0.00 0.00 70 1010.8
20260509224557 25 97 1.6 6.4 0.00 0.00 0.00 69 1010.7
20260509224051 25 0 1.6 6.4 0.00 0.00 0.00 70 1010.7
20260509223551 25 0 1.6 6.4 0.00 0.00 0.00 69 1010.7
20260509223051 25 84 1.6 6.4 0.00 0.00 0.00 71 1010.5
20260509222551 25 77 1.6 6.4 0.00 0.00 0.00 68 1010.6
20260509222051 25 108 1.6 8.0 0.00 0.00 0.00 70 1010.5
20260509221554 26 146 3.2 8.0 0.00 0.00 0.00 70 1010.6
20260509221051 26 193 1.6 9.7 0.00 0.00 0.00 68 1010.4
20260509220551 26 134 3.2 9.7 0.00 0.00 0.00 71 1010.3
20260509220053 25 0 3.2 12.9 0.00 0.00 0.00 70 1010.4
20260509215550 25 96 6.4 12.9 0.00 0.00 0.00 68 1010.4
20260509215057 26 213 3.2 11.3 0.00 0.00 0.00 69 1010.4
20260509214552 25 55 3.2 9.7 0.00 0.00 0.00 70 1010.3
20260509214051 25 109 3.2 9.7 0.00 0.00 0.00 70 1010.4
20260509213551 25 163 3.2 12.9 0.00 0.00 0.00 73 1010.4
20260509213106 25 0 1.6 12.9 0.00 0.00 0.00 73 1010.6
20260509212552 25 85 3.2 12.9 0.00 0.00 0.00 70 1010.5
20260509212051 25 40 1.6 9.7 0.00 0.00 0.00 72 1010.5
20260509211613 25 219 3.2 11.3 0.00 0.00 0.00 70 1010.7
20260509211051 25 76 3.2 12.9 0.00 0.00 0.00 71 1010.7
20260509210551 25 146 6.4 12.9 0.00 0.00 0.00 73 1010.7
20260509210058 25 172 3.2 9.7 0.00 0.00 0.00 71 1010.7
20260509205551 25 176 4.8 9.7 0.00 0.00 0.00 72 1010.7
20260509205052 25 160 3.2 9.7 0.00 0.00 0.00 72 1010.8
20260509204602 25 184 3.2 9.7 0.00 0.00 0.00 72 1010.8
20260509204053 26 73 3.2 9.7 0.00 0.00 0.00 71 1010.9
20260509203552 25 221 3.2 9.7 0.00 0.00 0.00 72 1010.8
20260509203058 25 64 1.6 11.3 0.00 0.00 0.00 74 1010.8
20260509202553 25 169 3.2 11.3 0.00 0.00 0.00 73 1010.9
20260509202052 25 90 1.6 12.9 0.00 0.00 0.00 71 1010.9
20260509201553 25 166 4.8 12.9 0.00 0.00 0.00 71 1011.1
20260509201052 25 31 3.2 9.7 0.00 0.00 0.00 72 1011.1
20260509200551 25 101 3.2 9.7 0.00 0.00 0.00 70 1011.0
20260509200056 25 75 1.6 6.4 0.00 0.00 0.00 73 1010.9
20260509195551 25 98 1.6 6.4 0.00 0.00 0.00 71 1011.1
20260509195051 25 69 1.6 6.4 0.00 0.00 0.00 73 1011.1
20260509194600 25 140 1.6 9.7 0.00 0.00 0.00 71 1011.1
20260509194052 25 276 3.2 12.9 0.00 0.00 0.00 72 1011.1
20260509193550 25 92 1.6 12.9 0.00 0.00 0.00 72 1011.1
20260509193058 25 65 3.2 11.3 0.00 0.00 0.00 73 1011.1
20260509192550 25 69 3.2 11.3 0.00 0.00 0.00 74 1011.1
20260509192052 25 160 3.2 11.3 0.00 0.00 0.00 74 1011.2
20260509191550 25 130 3.2 19.3 0.00 0.00 0.00 74 1011.1
20260509191051 25 90 6.4 19.3 0.00 0.00 0.00 74 1011.1
20260509190552 25 76 3.2 11.3 0.00 0.00 0.00 72 1011.0
20260509190057 25 104 1.6 11.3 0.00 0.00 0.00 75 1011.1
20260509185553 25 96 4.8 11.3 0.00 0.00 0.00 74 1011.2
20260509185052 25 63 3.2 6.4 0.00 0.00 0.00 75 1011.2
20260509184553 25 67 3.2 11.3 0.00 0.00 0.00 73 1011.1
20260509184052 25 95 3.2 11.3 0.00 0.00 0.00 74 1011.2
20260509183553 25 31 4.8 9.7 0.00 0.00 0.00 73 1011.2
20260509183055 25 80 3.2 12.9 0.00 0.00 0.00 72 1011.4
20260509182553 25 76 4.8 12.9 0.00 0.00 0.00 71 1011.4
20260509182052 25 5 6.4 16.1 0.00 0.00 0.00 71 1011.3
20260509181606 25 88 6.4 16.1 0.00 0.00 0.00 72 1011.4
20260509181053 25 46 4.8 14.5 0.00 0.00 0.00 72 1011.6
20260509180553 25 50 6.4 11.3 0.00 0.00 0.00 75 1011.6
20260509180053 25 126 4.8 11.3 0.00 0.00 0.00 76 1011.7
20260509175550 25 104 4.8 12.9 0.00 0.00 0.00 75 1012.0
20260509175052 24 103 6.4 12.9 0.00 0.00 0.00 76 1012.0
20260509174555 24 91 3.2 11.3 0.00 0.00 0.00 76 1011.9
20260509174052 24 0 3.2 9.7 0.00 0.00 0.00 78 1011.9
20260509173553 24 5 1.6 14.5 0.00 0.00 0.00 76 1012.0
20260509173106 24 0 4.8 16.1 0.00 0.00 0.00 77 1011.9
20260509172555 24 76 6.4 16.1 0.00 0.00 0.00 78 1011.9
20260509172053 24 53 6.4 12.9 0.00 0.00 0.00 77 1012.0
20260509171606 24 48 3.2 11.3 0.00 0.00 0.00 78 1012.1
20260509171052 24 50 6.4 11.3 0.00 0.00 0.00 78 1012.1
20260509170552 24 48 4.8 9.7 0.00 0.00 0.00 81 1012.2
20260509170055 23 62 4.8 9.7 0.00 0.00 0.00 80 1012.3
20260509165553 23 85 3.2 9.7 0.00 0.00 0.00 80 1012.4
20260509165052 23 22 3.2 11.3 0.00 0.00 0.00 79 1012.3
20260509164559 23 69 4.8 11.3 0.00 0.00 0.00 80 1012.3
20260509164052 23 351 4.8 11.3 0.00 0.00 0.00 81 1012.3
20260509163550 23 84 0.0 9.7 0.00 0.00 0.00 82 1012.3
20260509163102 23 0 0.0 9.7 0.00 0.00 0.00 83 1012.3
20260509162553 23 63 3.2 8.0 0.00 0.00 0.00 82 1012.2
20260509162052 23 5 3.2 8.0 0.00 0.00 0.00 83 1012.2
20260509161557 23 53 3.2 8.0 0.00 0.00 0.00 83 1012.2
20260509161052 23 0 1.6 9.7 0.00 0.00 0.00 83 1012.2
20260509160552 23 0 3.2 9.7 0.00 0.00 0.00 86 1012.3
20260509160105 23 66 0.0 6.4 0.00 0.00 0.00 85 1012.4
20260509155551 23 179 0.0 9.7 0.00 0.00 0.00 87 1012.3
20260509155054 22 107 1.6 11.3 0.00 0.00 0.00 85 1012.3
20260509154556 22 74 3.2 11.3 0.00 0.00 0.00 84 1012.3
20260509154054 22 77 3.2 11.3 0.00 0.00 0.00 85 1012.3
20260509153552 23 0 0.0 6.4 0.00 0.00 0.00 85 1012.2
20260509153054 22 78 1.6 4.8 0.00 0.00 0.00 86 1012.2
20260509152549 22 0 0.0 4.8 0.00 0.00 0.00 86 1012.2
20260509152051 22 71 0.0 4.8 0.00 0.00 0.00 88 1012.2
20260509151558 22 68 0.0 4.8 0.00 0.00 0.00 87 1012.1
20260509151053 21 0 0.0 4.8 0.00 0.00 0.00 87 1012.1
20260509150551 22 0 0.0 6.4 0.00 0.00 0.00 87 1012.0
20260509150054 22 0 1.6 6.4 0.00 0.00 0.00 87 1011.9
20260509145552 22 345 3.2 6.4 0.00 0.00 0.00 89 1011.7
20260509145051 21 0 0.0 6.4 0.00 0.00 0.00 89 1011.8
20260509144553 22 263 0.0 6.4 0.00 0.00 0.00 90 1011.8
20260509144057 21 0 1.6 6.4 0.00 0.00 0.00 89 1011.6
20260509143553 21 342 0.0 4.8 0.00 0.00 0.00 89 1011.7
20260509143057 21 0 0.0 3.2 0.00 0.00 0.00 90 1011.9
20260509142551 21 0 0.0 1.6 0.00 0.00 0.00 90 1011.9
20260509142051 21 0 0.0 1.6 0.00 0.00 0.00 91 1011.7
20260509141552 21 0 0.0 4.8 0.00 0.00 0.00 90 1011.8
20260509141052 21 0 0.0 4.8 0.00 0.00 0.00 90 1011.9
20260509140553 21 265 0.0 4.8 0.00 0.00 0.00 91 1011.7
20260509140114 20 0 0.0 4.8 0.00 0.00 0.00 92 1011.7
20260509135554 20 205 0.0 4.8 0.00 0.00 0.00 92 1011.7
20260509135053 20 215 1.6 4.8 0.00 0.00 0.00 91 1011.7
20260509134557 20 187 0.0 3.2 0.00 0.00 0.00 92 1011.6
20260509134051 20 229 0.0 3.2 0.00 0.00 0.00 92 1011.7
20260509133551 20 0 0.0 1.6 0.00 0.00 0.00 92 1011.5
20260509133104 20 0 0.0 3.2 0.00 0.00 0.00 92 1011.5
20260509132553 20 0 0.0 3.2 0.00 0.00 0.00 92 1011.5
20260509132055 19 0 0.0 3.2 0.00 0.00 0.00 92 1011.8
20260509131556 19 229 1.6 3.2 0.00 0.00 0.00 92 1011.8
20260509131055 19 0 0.0 3.2 0.00 0.00 0.00 92 1011.7
20260509130551 19 0 0.0 4.8 0.00 0.00 0.00 93 1011.5
20260509130101 19 355 1.6 4.8 0.00 0.00 0.00 93 1011.4
20260509125553 19 350 0.0 4.8 0.00 0.00 0.00 93 1011.3
20260509125053 18 350 0.0 4.8 0.00 0.00 0.00 93 1011.2
20260509124600 18 352 0.0 3.2 0.00 0.00 0.00 93 1011.3
20260509124053 18 0 0.0 0.0 0.00 0.00 0.00 93 1011.3
20260509123556 18 0 0.0 0.0 0.00 0.00 0.00 94 1011.2
20260509123056 18 0 0.0 0.0 0.00 0.00 0.00 93 1011.4
20260509122551 18 0 0.0 0.0 0.00 0.00 0.00 93 1011.3
20260509122051 17 0 0.0 1.6 0.00 0.00 0.00 93 1011.2
20260509121554 17 0 0.0 1.6 0.00 0.00 0.00 93 1011.0
20260509121049 17 0 0.0 4.8 0.00 0.00 0.00 93 1011.0
20260509120554 17 0 0.0 6.4 0.00 0.00 0.00 93 1010.9
20260509120053 17 22 1.6 6.4 0.00 0.00 0.00 93 1010.4
20260509115552 17 355 1.6 4.8 0.00 0.00 0.00 93 1010.5
20260509115050 17 352 1.6 4.8 0.00 0.00 0.00 93 1010.5
20260509114600 17 0 0.0 0.0 0.00 0.00 0.00 93 1010.4
20260509114052 17 0 0.0 0.0 0.00 0.00 0.00 93 1010.7
20260509113552 17 0 0.0 0.0 0.00 0.00 0.00 93 1010.7
20260509113052 17 0 0.0 0.0 0.00 0.00 0.00 93 1010.6
20260509112552 17 0 0.0 0.0 0.00 0.00 0.00 93 1010.6
20260509112050 17 0 0.0 0.0 0.00 0.00 0.00 93 1010.5
20260509111552 17 0 0.0 0.0 0.00 0.00 0.00 93 1010.5
20260509111050 17 0 0.0 0.0 0.00 0.00 0.00 93 1010.4
20260509110550 17 0 0.0 0.0 0.00 0.00 0.00 93 1010.4
20260509110057 17 0 0.0 0.0 0.00 0.00 0.00 93 1010.6
20260509105552 17 0 0.0 0.0 0.00 0.00 0.00 93 1010.7
20260509105052 17 0 0.0 0.0 0.00 0.00 0.00 93 1010.6